Location: Godiavel Galaoual
(15.2485°N, 12.6604°W)
Time: 03:01:11
(UTC+00:00)

SRMSAT - Visible Passes

Search period start: 05 August 2021 00:00
Search period end: 15 August 2021 00:00
Orbit: 848 x 865 km, 20.0° (Epoch: 04 August)

Date Brightness Start Highest point End Pass type
(mag) Time Alt. Az. Time Alt. Az. Time Alt. Az.
05 Aug ? 05:15:17 22° SSW 05:18:06 33° SSE 05:23:21 10° E visible
06 Aug ? 05:03:08 30° SSW 05:05:03 37° SSE 05:10:29 10° E visible
07 Aug ? 04:50:56 39° S 04:52:00 42° SSE 04:57:35 10° E visible
08 Aug ? 04:38:45 47° SSE 04:38:57 48° SSE 04:44:40 10° E visible
09 Aug ? 04:26:32 51° SE 04:26:32 51° SE 04:31:42 10° E visible
09 Aug ? 06:09:07 10° W 06:15:05 75° NNW 06:21:02 10° ENE visible
10 Aug ? 04:14:19 47° ESE 04:14:19 47° ESE 04:18:45 10° E visible
10 Aug ? 05:56:18 11° W 06:02:04 70° N 06:08:01 10° ENE visible
11 Aug ? 04:02:05 38° E 04:02:05 38° E 04:05:45 10° E visible
11 Aug ? 05:44:04 15° W 05:49:04 66° N 05:55:00 10° ENE visible
12 Aug ? 03:49:51 30° E 03:49:51 30° E 03:52:45 10° E visible
12 Aug ? 05:31:50 20° W 05:36:04 63° N 05:41:59 10° ENE visible
13 Aug ? 03:37:37 23° E 03:37:37 23° E 03:39:44 10° ENE visible
13 Aug ? 05:19:36 25° WNW 05:23:04 60° N 05:28:58 10° ENE visible
14 Aug ? 03:25:24 17° ENE 03:25:24 17° ENE 03:26:43 10° ENE visible
14 Aug ? 05:07:23 32° WNW 05:10:04 58° N 05:15:57 10° ENE visible
